Year,Month,Day,Hour,Minute,Value (Times are PST for temperature in C)
2019,02,04,00,00,-3.30
2019,02,04,00,01,-3.30
2019,02,04,00,02,-3.40
2019,02,04,00,03,-3.40
2019,02,04,00,04,-3.40
2019,02,04,00,05,-3.40
2019,02,04,00,06,-3.40
2019,02,04,00,07,-3.40
2019,02,04,00,08,-3.40
2019,02,04,00,09,-3.40
2019,02,04,00,10,-3.40
2019,02,04,00,11,-3.40
2019,02,04,00,12,-3.40
2019,02,04,00,13,-3.40
2019,02,04,00,14,-3.40
2019,02,04,00,15,-3.40
2019,02,04,00,16,-3.40
2019,02,04,00,17,-3.40
2019,02,04,00,18,-3.40
2019,02,04,00,19,-3.50
2019,02,04,00,20,-3.50
2019,02,04,00,21,-3.50
2019,02,04,00,22,-3.50
2019,02,04,00,23,-3.50
2019,02,04,00,24,-3.60
2019,02,04,00,25,-3.60
2019,02,04,00,26,-3.60
2019,02,04,00,27,-3.60
2019,02,04,00,28,-3.60
2019,02,04,00,29,-3.60
2019,02,04,00,30,-3.60
2019,02,04,00,31,-3.60
2019,02,04,00,32,-3.60
2019,02,04,00,33,-3.60
2019,02,04,00,34,-3.60
2019,02,04,00,35,-3.60
2019,02,04,00,36,-3.70
2019,02,04,00,37,-3.70
2019,02,04,00,38,-3.70
2019,02,04,00,39,-3.70
2019,02,04,00,40,-3.70
2019,02,04,00,41,-3.70
2019,02,04,00,42,-3.70
2019,02,04,00,43,-3.70
2019,02,04,00,44,-3.70
2019,02,04,00,45,-3.70
2019,02,04,00,46,-3.80
2019,02,04,00,47,-3.80
2019,02,04,00,48,-3.80
2019,02,04,00,49,-3.80
2019,02,04,00,50,-3.80
2019,02,04,00,51,-3.80
2019,02,04,00,52,-3.80
2019,02,04,00,53,-3.80
2019,02,04,00,54,-3.80
2019,02,04,00,55,-3.80
2019,02,04,00,56,-3.80
2019,02,04,00,57,-3.80
2019,02,04,00,58,-3.80
2019,02,04,00,59,-3.80
2019,02,04,01,00,-3.80
2019,02,04,01,01,-3.80
2019,02,04,01,02,-3.80
2019,02,04,01,03,-3.80
2019,02,04,01,04,-3.80
2019,02,04,01,05,-3.80
2019,02,04,01,06,-3.80
2019,02,04,01,07,-3.80
2019,02,04,01,08,-3.80
2019,02,04,01,09,-3.80
2019,02,04,01,10,-3.80
2019,02,04,01,11,-3.80
2019,02,04,01,12,-3.80
2019,02,04,01,13,-3.80
2019,02,04,01,14,-3.80
2019,02,04,01,15,-3.80
2019,02,04,01,16,-3.80
2019,02,04,01,17,-3.80
2019,02,04,01,18,-3.80
2019,02,04,01,19,-3.80
2019,02,04,01,20,-3.80
2019,02,04,01,21,-3.80
2019,02,04,01,22,-3.80
2019,02,04,01,23,-3.80
2019,02,04,01,24,-3.80
2019,02,04,01,25,-3.80
2019,02,04,01,26,-3.70
2019,02,04,01,27,-3.70
2019,02,04,01,28,-3.70
2019,02,04,01,29,-3.70
2019,02,04,01,30,-3.70
2019,02,04,01,31,-3.70
2019,02,04,01,32,-3.70
2019,02,04,01,33,-3.70
2019,02,04,01,34,-3.70
2019,02,04,01,35,-3.70
2019,02,04,01,36,-3.70
2019,02,04,01,37,-3.70
2019,02,04,01,38,-3.70
2019,02,04,01,39,-3.70
2019,02,04,01,40,-3.70
2019,02,04,01,41,-3.70
2019,02,04,01,42,-3.70
2019,02,04,01,43,-3.80
2019,02,04,01,44,-3.80
2019,02,04,01,45,-3.80
2019,02,04,01,46,-3.80
2019,02,04,01,47,-3.80
2019,02,04,01,48,-3.80
2019,02,04,01,49,-3.80
2019,02,04,01,50,-3.80
2019,02,04,01,51,-3.80
2019,02,04,01,52,-3.80
2019,02,04,01,53,-3.80
2019,02,04,01,54,-3.80
2019,02,04,01,55,-3.80
2019,02,04,01,56,-3.80
2019,02,04,01,57,-3.80
2019,02,04,01,58,-3.70
2019,02,04,01,59,-3.80
2019,02,04,02,00,-3.80
2019,02,04,02,01,-3.80
2019,02,04,02,02,-3.80
2019,02,04,02,03,-3.80
2019,02,04,02,04,-3.80
2019,02,04,02,05,-3.80
2019,02,04,02,06,-3.80
2019,02,04,02,07,-3.80
2019,02,04,02,08,-3.70
2019,02,04,02,09,-3.70
2019,02,04,02,10,-3.70
2019,02,04,02,11,-3.70
2019,02,04,02,12,-3.70
2019,02,04,02,13,-3.70
2019,02,04,02,14,-3.70
2019,02,04,02,15,-3.70
2019,02,04,02,16,-3.70
2019,02,04,02,17,-3.70
2019,02,04,02,18,-3.70
2019,02,04,02,19,-3.70
2019,02,04,02,20,-3.70
2019,02,04,02,21,-3.70
2019,02,04,02,22,-3.70
2019,02,04,02,23,-3.70
2019,02,04,02,24,-3.70
2019,02,04,02,25,-3.70
2019,02,04,02,26,-3.70
2019,02,04,02,27,-3.70
2019,02,04,02,28,-3.70
2019,02,04,02,29,-3.70
2019,02,04,02,30,-3.70
2019,02,04,02,31,-3.70
2019,02,04,02,32,-3.70
2019,02,04,02,33,-3.70
2019,02,04,02,34,-3.70
2019,02,04,02,35,-3.70
2019,02,04,02,36,-3.70
2019,02,04,02,37,-3.70
2019,02,04,02,38,-3.70
2019,02,04,02,39,-3.80
2019,02,04,02,40,-3.80
2019,02,04,02,41,-3.80
2019,02,04,02,42,-3.80
2019,02,04,02,43,-3.80
2019,02,04,02,44,-3.70
2019,02,04,02,45,-3.70
2019,02,04,02,46,-3.80
2019,02,04,02,47,-3.80
2019,02,04,02,48,-3.80
2019,02,04,02,49,-3.80
2019,02,04,02,50,-3.80
2019,02,04,02,51,-3.80
2019,02,04,02,52,-3.80
2019,02,04,02,53,-3.80
2019,02,04,02,54,-3.80
2019,02,04,02,55,-3.80
2019,02,04,02,56,-3.80
2019,02,04,02,57,-3.80
2019,02,04,02,58,-3.80
2019,02,04,02,59,-3.80
2019,02,04,03,00,-3.80
2019,02,04,03,01,-3.80
2019,02,04,03,02,-3.80
2019,02,04,03,03,-3.90
2019,02,04,03,04,-3.90
2019,02,04,03,05,-3.90
2019,02,04,03,06,-3.90
2019,02,04,03,07,-3.90
2019,02,04,03,08,-3.90
2019,02,04,03,09,-3.90
2019,02,04,03,10,-3.90
2019,02,04,03,11,-3.90
2019,02,04,03,12,-3.90
2019,02,04,03,13,-3.90
2019,02,04,03,14,-3.90
2019,02,04,03,15,-3.90
2019,02,04,03,16,-3.90
2019,02,04,03,17,-3.90
2019,02,04,03,18,-3.90
2019,02,04,03,19,-4.00
2019,02,04,03,20,-4.00
2019,02,04,03,21,-4.00
2019,02,04,03,22,-4.00
2019,02,04,03,23,-4.00
2019,02,04,03,24,-4.00
2019,02,04,03,25,-4.00
2019,02,04,03,26,-4.00
2019,02,04,03,27,-4.00
2019,02,04,03,28,-4.00
2019,02,04,03,29,-4.00
2019,02,04,03,30,-4.00
2019,02,04,03,31,-4.00
2019,02,04,03,32,-4.00
2019,02,04,03,33,-4.00
2019,02,04,03,34,-4.00
2019,02,04,03,35,-4.00
2019,02,04,03,36,-4.00
2019,02,04,03,37,-4.00
2019,02,04,03,38,-4.00
2019,02,04,03,39,-4.00
2019,02,04,03,40,-4.00
2019,02,04,03,41,-4.00
2019,02,04,03,42,-4.00
2019,02,04,03,43,-3.90
2019,02,04,03,44,-3.90
2019,02,04,03,45,-3.90
2019,02,04,03,46,-4.00
2019,02,04,03,47,-4.00
2019,02,04,03,48,-4.00
2019,02,04,03,49,-4.00
2019,02,04,03,50,-4.00
2019,02,04,03,51,-3.90
2019,02,04,03,52,-3.90
2019,02,04,03,53,-3.90
2019,02,04,03,54,-3.90
2019,02,04,03,55,-3.90
2019,02,04,03,56,-3.90
2019,02,04,03,57,-3.90
2019,02,04,03,58,-3.90
2019,02,04,03,59,-3.90
2019,02,04,04,00,-3.90
2019,02,04,04,01,-3.90
2019,02,04,04,02,-3.90
2019,02,04,04,03,-3.90
2019,02,04,04,04,-3.90
2019,02,04,04,05,-3.90
2019,02,04,04,06,-3.90
2019,02,04,04,07,-3.90
2019,02,04,04,08,-3.90
2019,02,04,04,09,-3.90
2019,02,04,04,10,-3.90
2019,02,04,04,11,-4.00
2019,02,04,04,12,-4.10
2019,02,04,04,13,-4.10
2019,02,04,04,14,-4.10
2019,02,04,04,15,-4.10
2019,02,04,04,16,-4.10
2019,02,04,04,17,-4.10
2019,02,04,04,18,-4.10
2019,02,04,04,19,-4.10
2019,02,04,04,20,-4.10
2019,02,04,04,21,-4.10
2019,02,04,11,25,-1.80
2019,02,04,11,26,-1.80
2019,02,04,11,27,-1.80
2019,02,04,11,28,-1.80
2019,02,04,11,29,-1.80
2019,02,04,11,30,-1.80
2019,02,04,11,31,-1.70
2019,02,04,11,32,-1.70
2019,02,04,11,33,-1.70
2019,02,04,11,34,-1.70
2019,02,04,11,35,-1.70
2019,02,04,11,36,-1.60
2019,02,04,11,37,-1.60
2019,02,04,11,38,-1.50
2019,02,04,11,39,-1.40
2019,02,04,11,40,-1.40
2019,02,04,11,41,-1.30
2019,02,04,11,42,-1.20
2019,02,04,11,43,-1.10
2019,02,04,11,44,-1.00
2019,02,04,11,45,-1.00
2019,02,04,11,46,-1.00
2019,02,04,11,47,-1.00
2019,02,04,11,48,-1.10
2019,02,04,11,49,-1.10
2019,02,04,11,50,-1.20
2019,02,04,11,51,-1.30
2019,02,04,11,52,-1.30
2019,02,04,11,53,-1.30
2019,02,04,11,54,-1.30
2019,02,04,11,55,-1.30
2019,02,04,11,56,-1.30
2019,02,04,11,57,-1.30
2019,02,04,11,58,-1.30
2019,02,04,11,59,-1.30
2019,02,04,12,00,-1.30
2019,02,04,12,01,-1.30
2019,02,04,12,02,-1.40
2019,02,04,12,03,-1.40
2019,02,04,12,04,-1.40
2019,02,04,12,05,-1.40
2019,02,04,12,06,-1.40
2019,02,04,12,07,-1.30
2019,02,04,12,08,-1.30
2019,02,04,12,09,-1.30
2019,02,04,12,10,-1.30
2019,02,04,12,11,-1.20
2019,02,04,12,12,-1.20
2019,02,04,12,13,-1.20
2019,02,04,12,14,-1.20
2019,02,04,12,15,-1.20
2019,02,04,12,16,-1.20
2019,02,04,12,17,-1.20
2019,02,04,12,18,-1.20
2019,02,04,12,19,-1.30
2019,02,04,12,20,-1.30
2019,02,04,12,21,-1.30
2019,02,04,12,22,-1.30
2019,02,04,12,23,-1.30
2019,02,04,12,24,-1.30
2019,02,04,12,25,-1.30
2019,02,04,12,26,-1.30
2019,02,04,12,27,-1.30
2019,02,04,12,28,-1.30
2019,02,04,12,29,-1.30
2019,02,04,12,30,-1.20
2019,02,04,12,31,-1.20
2019,02,04,12,32,-1.20
2019,02,04,12,33,-1.20
2019,02,04,12,34,-1.20
2019,02,04,12,35,-1.30
2019,02,04,12,36,-1.30
2019,02,04,12,37,-1.30
2019,02,04,12,38,-1.40
2019,02,04,12,39,-1.40
2019,02,04,12,40,-1.40
2019,02,04,12,41,-1.40
2019,02,04,12,42,-1.40
2019,02,04,12,43,-1.40
2019,02,04,12,44,-1.40
2019,02,04,12,45,-1.40
2019,02,04,12,46,-1.30
2019,02,04,12,47,-1.30
2019,02,04,12,48,-1.30
2019,02,04,12,49,-1.30
2019,02,04,12,50,-1.30
2019,02,04,12,51,-1.30
2019,02,04,12,52,-1.30
2019,02,04,12,53,-1.30
2019,02,04,12,54,-1.30
2019,02,04,12,55,-1.30
2019,02,04,12,56,-1.30
2019,02,04,12,57,-1.30
2019,02,04,12,58,-1.30
2019,02,04,12,59,-1.30
2019,02,04,13,00,-1.20
2019,02,04,13,01,-1.20
2019,02,04,13,02,-1.20
2019,02,04,13,03,-1.20
2019,02,04,13,04,-1.20
2019,02,04,13,05,-1.20
2019,02,04,13,06,-1.20
2019,02,04,13,07,-1.30
2019,02,04,13,08,-1.30
2019,02,04,13,09,-1.30
2019,02,04,13,10,-1.30
2019,02,04,13,11,-1.30
2019,02,04,13,12,-1.30
2019,02,04,13,13,-1.30
2019,02,04,13,14,-1.30
2019,02,04,13,15,-1.20
2019,02,04,13,16,-1.20
2019,02,04,13,17,-1.20
2019,02,04,13,18,-1.20
2019,02,04,13,19,-1.20
2019,02,04,13,20,-1.20
2019,02,04,13,21,-1.20
2019,02,04,13,22,-1.30
2019,02,04,13,23,-1.30
2019,02,04,13,24,-1.30
2019,02,04,13,25,-1.30
2019,02,04,13,26,-1.30
2019,02,04,13,27,-1.30
2019,02,04,13,28,-1.30
2019,02,04,13,29,-1.30
2019,02,04,13,30,-1.30
2019,02,04,13,31,-1.30
2019,02,04,13,32,-1.20
2019,02,04,13,33,-1.20
2019,02,04,13,34,-1.20
2019,02,04,13,35,-1.20
2019,02,04,13,36,-1.20
2019,02,04,13,37,-1.20
2019,02,04,13,38,-1.20
2019,02,04,13,39,-1.20
2019,02,04,13,40,-1.10
2019,02,04,13,41,-1.10
2019,02,04,13,42,-1.10
2019,02,04,13,43,-1.10
2019,02,04,13,44,-1.10
2019,02,04,13,45,-1.00
2019,02,04,13,46,-1.00
2019,02,04,13,47,-1.00
2019,02,04,13,48,-0.90
2019,02,04,13,49,-0.90
2019,02,04,13,50,-0.90
2019,02,04,13,51,-0.90
2019,02,04,13,52,-0.80
2019,02,04,13,53,-0.80
2019,02,04,13,54,-0.80
2019,02,04,13,55,-0.80
2019,02,04,13,56,-0.80
2019,02,04,13,57,-0.70
2019,02,04,13,58,-0.70
2019,02,04,13,59,-0.70
2019,02,04,14,00,-0.60
2019,02,04,14,01,-0.60
2019,02,04,14,02,-0.60
2019,02,04,14,03,-0.60
2019,02,04,14,04,-0.60
2019,02,04,14,05,-0.60
2019,02,04,14,06,-0.60
2019,02,04,14,07,-0.60
2019,02,04,14,08,-0.50
2019,02,04,14,09,-0.50
2019,02,04,14,10,-0.40
2019,02,04,14,11,-0.40
2019,02,04,14,12,-0.40
2019,02,04,14,13,-0.40
2019,02,04,14,14,-0.40
2019,02,04,14,15,-0.40
2019,02,04,14,16,-0.40
2019,02,04,14,17,-0.40
2019,02,04,14,18,-0.40
2019,02,04,14,19,-0.40
2019,02,04,14,20,-0.40
2019,02,04,14,21,-0.30
2019,02,04,14,22,-0.30
2019,02,04,14,23,-0.20
2019,02,04,14,24,-0.20
2019,02,04,14,25,-0.30
2019,02,04,14,26,-0.30
2019,02,04,14,27,-0.40
2019,02,04,14,28,-0.40
2019,02,04,14,29,-0.40
2019,02,04,14,30,-0.40
2019,02,04,14,31,-0.40
2019,02,04,14,32,-0.40
2019,02,04,14,33,-0.40
2019,02,04,14,34,-0.40
2019,02,04,14,35,-0.40
2019,02,04,14,36,-0.40
2019,02,04,14,37,-0.40
2019,02,04,14,38,-0.30
2019,02,04,14,39,-0.30
2019,02,04,14,40,-0.30
2019,02,04,14,41,-0.30
2019,02,04,14,42,-0.30
2019,02,04,14,43,-0.30
2019,02,04,14,44,-0.30
2019,02,04,14,45,-0.20
2019,02,04,14,46,-0.20
2019,02,04,14,47,-0.20
2019,02,04,14,48,-0.20
2019,02,04,14,49,-0.10
2019,02,04,14,50,-0.10
2019,02,04,14,51,-0.10
2019,02,04,14,52,-0.20
2019,02,04,14,53,-0.20
2019,02,04,14,54,-0.20
2019,02,04,14,55,-0.20
2019,02,04,14,56,-0.20
2019,02,04,14,57,-0.10
2019,02,04,14,58,-0.10
2019,02,04,14,59,0.00
2019,02,04,15,00,0.00
2019,02,04,15,01,0.00
2019,02,04,15,02,-0.10
2019,02,04,15,03,-0.10
2019,02,04,15,04,-0.10
2019,02,04,15,05,-0.10
2019,02,04,15,06,-0.10
2019,02,04,15,07,-0.10
2019,02,04,15,08,-0.10
2019,02,04,15,09,-0.10
2019,02,04,15,10,0.00
2019,02,04,15,11,0.00
2019,02,04,15,12,-0.10
2019,02,04,15,13,0.00
2019,02,04,15,14,-0.10
2019,02,04,15,15,-0.10
2019,02,04,15,16,-0.10
2019,02,04,15,17,-0.10
2019,02,04,15,18,0.00
2019,02,04,15,19,0.00
2019,02,04,15,20,0.00
2019,02,04,15,21,0.00
2019,02,04,15,22,0.00
2019,02,04,15,23,0.00
2019,02,04,15,24,0.00
2019,02,04,15,25,0.00
2019,02,04,15,26,0.10
2019,02,04,15,27,0.10
2019,02,04,15,28,0.20
2019,02,04,15,29,0.20
2019,02,04,15,30,0.20
2019,02,04,15,31,0.20
2019,02,04,15,32,0.20
2019,02,04,15,33,0.30
2019,02,04,15,34,0.30
2019,02,04,15,35,0.30
2019,02,04,15,36,0.30
2019,02,04,15,37,0.20
2019,02,04,15,38,0.20
2019,02,04,15,39,0.20
2019,02,04,15,40,0.20
2019,02,04,15,41,0.20
2019,02,04,15,42,0.20
2019,02,04,15,43,0.20
2019,02,04,15,44,0.10
2019,02,04,15,45,0.10
2019,02,04,15,46,0.10
2019,02,04,15,47,0.10
2019,02,04,15,48,0.20
2019,02,04,15,49,0.20
2019,02,04,15,50,0.20
2019,02,04,15,51,0.20
2019,02,04,15,52,0.20
2019,02,04,15,53,0.20
2019,02,04,15,54,0.20
2019,02,04,15,55,0.20
2019,02,04,15,56,0.20
2019,02,04,15,57,0.20
2019,02,04,15,58,0.20
2019,02,04,15,59,0.20
2019,02,04,16,00,0.20
2019,02,04,16,01,0.20
2019,02,04,16,02,0.10
2019,02,04,16,03,0.10
2019,02,04,16,04,0.10
2019,02,04,16,05,0.10
2019,02,04,16,06,0.00
2019,02,04,16,07,0.00
2019,02,04,16,08,0.00
2019,02,04,16,09,0.00
2019,02,04,16,10,0.00
2019,02,04,16,11,-0.10
2019,02,04,16,12,-0.10
2019,02,04,16,13,-0.20
2019,02,04,16,14,-0.20
2019,02,04,16,15,-0.20
2019,02,04,16,16,-0.30
2019,02,04,16,17,-0.30
2019,02,04,16,18,-0.30
2019,02,04,16,19,-0.30
2019,02,04,16,20,-0.30
2019,02,04,16,21,-0.30
2019,02,04,16,22,-0.30
2019,02,04,16,23,-0.30
2019,02,04,16,24,-0.30
2019,02,04,16,25,-0.30
2019,02,04,16,26,-0.30
2019,02,04,16,27,-0.30
2019,02,04,16,28,-0.30
2019,02,04,16,29,-0.30
2019,02,04,16,30,-0.30
2019,02,04,16,31,-0.30
2019,02,04,16,32,-0.30
2019,02,04,16,33,-0.30
2019,02,04,16,34,-0.40
2019,02,04,16,35,-0.40
2019,02,04,16,36,-0.40
2019,02,04,16,37,-0.40
2019,02,04,16,38,-0.50
2019,02,04,16,39,-0.50
2019,02,04,16,40,-0.50
2019,02,04,16,41,-0.50
2019,02,04,16,42,-0.50
2019,02,04,16,43,-0.50
2019,02,04,16,44,-0.60
2019,02,04,16,45,-0.60
2019,02,04,16,46,-0.60
2019,02,04,16,47,-0.70
2019,02,04,16,48,-0.70
2019,02,04,16,49,-0.70
2019,02,04,16,50,-0.80
2019,02,04,16,51,-0.80
2019,02,04,16,52,-0.80
2019,02,04,16,53,-0.80
2019,02,04,16,54,-0.90
2019,02,04,16,55,-0.90
2019,02,04,16,56,-0.90
2019,02,04,16,57,-0.90
2019,02,04,16,58,-0.90
2019,02,04,16,59,-0.90
2019,02,04,17,00,-1.00
2019,02,04,17,01,-1.00
2019,02,04,17,02,-1.00
2019,02,04,17,03,-1.00
2019,02,04,17,04,-1.00
2019,02,04,17,05,-1.00
2019,02,04,17,06,-1.10
2019,02,04,17,07,-1.10
2019,02,04,17,08,-1.10
2019,02,04,17,09,-1.10
2019,02,04,17,10,-1.10
2019,02,04,17,11,-1.10
2019,02,04,17,12,-1.10
2019,02,04,17,13,-1.10
2019,02,04,17,14,-1.10
2019,02,04,17,15,-1.20
2019,02,04,17,16,-1.20
2019,02,04,17,17,-1.20
2019,02,04,17,18,-1.20
2019,02,04,17,19,-1.20
2019,02,04,17,20,-1.20
2019,02,04,17,21,-1.20
2019,02,04,17,22,-1.20
2019,02,04,17,23,-1.20
2019,02,04,17,24,-1.20
2019,02,04,17,25,-1.20
2019,02,04,17,26,-1.30
2019,02,04,17,27,-1.30
2019,02,04,17,28,-1.30
2019,02,04,17,29,-1.30
2019,02,04,17,30,-1.30
2019,02,04,17,31,-1.30
2019,02,04,17,32,-1.30
2019,02,04,17,33,-1.30
2019,02,04,17,34,-1.30
2019,02,04,17,35,-1.30
2019,02,04,17,36,-1.30
2019,02,04,17,37,-1.30
2019,02,04,17,38,-1.30
2019,02,04,17,39,-1.30
2019,02,04,17,40,-1.30
2019,02,04,17,41,-1.30
2019,02,04,17,42,-1.30
2019,02,04,17,43,-1.30
2019,02,04,17,44,-1.30
2019,02,04,17,45,-1.30
2019,02,04,17,46,-1.30
2019,02,04,17,47,-1.30
2019,02,04,17,48,-1.30
2019,02,04,17,49,-1.30
2019,02,04,17,50,-1.40
2019,02,04,17,51,-1.40
2019,02,04,17,52,-1.30
2019,02,04,17,53,-1.30
2019,02,04,17,54,-1.40
2019,02,04,17,55,-1.40
2019,02,04,17,56,-1.40
2019,02,04,17,57,-1.30
2019,02,04,17,58,-1.30
2019,02,04,17,59,-1.30
2019,02,04,18,00,-1.30
2019,02,04,18,01,-1.30
2019,02,04,18,02,-1.30
2019,02,04,18,03,-1.30
2019,02,04,18,04,-1.30
2019,02,04,18,05,-1.30
2019,02,04,18,06,-1.30
2019,02,04,18,07,-1.40
2019,02,04,18,08,-1.40
2019,02,04,18,09,-1.40
2019,02,04,18,10,-1.40
2019,02,04,18,11,-1.40
2019,02,04,18,12,-1.40
2019,02,04,18,13,-1.40
2019,02,04,18,14,-1.40
2019,02,04,18,15,-1.40
2019,02,04,18,16,-1.40
2019,02,04,18,17,-1.40
2019,02,04,18,18,-1.40
2019,02,04,18,19,-1.40
2019,02,04,18,20,-1.40
2019,02,04,18,21,-1.40
2019,02,04,18,22,-1.40
2019,02,04,18,23,-1.40
2019,02,04,18,24,-1.40
2019,02,04,18,25,-1.40
2019,02,04,18,26,-1.40
2019,02,04,18,27,-1.40
2019,02,04,18,28,-1.50
2019,02,04,18,29,-1.50
2019,02,04,18,30,-1.50
2019,02,04,18,31,-1.50
2019,02,04,18,32,-1.50
2019,02,04,18,33,-1.50
2019,02,04,18,34,-1.50
2019,02,04,18,35,-1.50
2019,02,04,18,36,-1.50
2019,02,04,18,37,-1.50
2019,02,04,18,38,-1.50
2019,02,04,18,39,-1.50
2019,02,04,18,40,-1.50
2019,02,04,18,41,-1.40
2019,02,04,18,42,-1.40
2019,02,04,18,43,-1.40
2019,02,04,18,44,-1.40
2019,02,04,18,45,-1.30
2019,02,04,18,46,-1.30
2019,02,04,18,47,-1.30
2019,02,04,18,48,-1.30
2019,02,04,18,49,-1.30
2019,02,04,18,50,-1.30
2019,02,04,18,51,-1.30
2019,02,04,18,52,-1.30
2019,02,04,18,53,-1.30
2019,02,04,18,54,-1.30
2019,02,04,18,55,-1.30
2019,02,04,18,56,-1.30
2019,02,04,18,57,-1.30
2019,02,04,18,58,-1.30
2019,02,04,18,59,-1.30
2019,02,04,19,00,-1.30
2019,02,04,19,01,-1.30
2019,02,04,19,02,-1.30
2019,02,04,19,03,-1.30
2019,02,04,19,04,-1.20
2019,02,04,19,05,-1.20
2019,02,04,19,06,-1.20
2019,02,04,19,07,-1.20
2019,02,04,19,08,-1.20
2019,02,04,19,09,-1.20
2019,02,04,19,10,-1.20
2019,02,04,19,11,-1.20
2019,02,04,19,12,-1.20
2019,02,04,19,13,-1.20
2019,02,04,19,14,-1.10
2019,02,04,19,15,-1.10
2019,02,04,19,16,-1.10
2019,02,04,19,17,-1.10
2019,02,04,19,18,-1.10
2019,02,04,19,19,-1.10
2019,02,04,19,20,-1.10
2019,02,04,19,21,-1.00
2019,02,04,19,22,-1.10
2019,02,04,19,23,-1.10
2019,02,04,19,24,-1.10
2019,02,04,19,25,-1.10
2019,02,04,19,26,-1.10
2019,02,04,19,27,-1.10
2019,02,04,19,28,-1.10
2019,02,04,19,29,-1.10
2019,02,04,19,30,-1.20
2019,02,04,19,31,-1.20
2019,02,04,19,32,-1.20
2019,02,04,19,33,-1.20
2019,02,04,19,34,-1.20
2019,02,04,19,35,-1.20
2019,02,04,19,36,-1.20
2019,02,04,19,37,-1.30
2019,02,04,19,38,-1.30
2019,02,04,19,39,-1.30
2019,02,04,19,40,-1.30
2019,02,04,19,41,-1.30
2019,02,04,19,42,-1.30
2019,02,04,19,43,-1.30
2019,02,04,19,44,-1.30
2019,02,04,19,45,-1.30
2019,02,04,19,46,-1.30
2019,02,04,19,47,-1.30
2019,02,04,19,48,-1.30
2019,02,04,19,49,-1.30
2019,02,04,19,50,-1.30
2019,02,04,19,51,-1.30
2019,02,04,19,52,-1.30
2019,02,04,19,53,-1.30
2019,02,04,19,54,-1.30
2019,02,04,19,55,-1.40
2019,02,04,19,56,-1.40
2019,02,04,19,57,-1.40
2019,02,04,19,58,-1.40
2019,02,04,19,59,-1.40
2019,02,04,20,00,-1.40
2019,02,04,20,01,-1.40
2019,02,04,20,02,-1.40
2019,02,04,20,03,-1.40
2019,02,04,20,04,-1.40
2019,02,04,20,05,-1.40
2019,02,04,20,06,-1.40
2019,02,04,20,07,-1.40
2019,02,04,20,08,-1.40
2019,02,04,20,09,-1.50
2019,02,04,20,10,-1.50
2019,02,04,20,11,-1.60
2019,02,04,20,12,-1.60
2019,02,04,20,13,-1.60
2019,02,04,20,14,-1.60
2019,02,04,20,15,-1.60
2019,02,04,20,16,-1.70
2019,02,04,20,17,-1.70
2019,02,04,20,18,-1.70
2019,02,04,20,19,-1.70
2019,02,04,20,20,-1.70
2019,02,04,20,21,-1.70
2019,02,04,20,22,-1.70
2019,02,04,20,23,-1.70
2019,02,04,20,24,-1.70
2019,02,04,20,25,-1.80
2019,02,04,20,26,-1.80
2019,02,04,20,27,-1.80
2019,02,04,20,28,-1.80
2019,02,04,20,29,-1.80
2019,02,04,20,30,-1.80
2019,02,04,20,31,-1.90
2019,02,04,20,32,-1.90
2019,02,04,20,33,-1.90
2019,02,04,20,34,-1.90
2019,02,04,20,35,-1.90
2019,02,04,20,36,-1.90
2019,02,04,20,37,-2.00
2019,02,04,20,38,-2.00
2019,02,04,20,39,-2.00
2019,02,04,20,40,-2.00
2019,02,04,20,41,-2.00
2019,02,04,20,42,-2.10
2019,02,04,20,43,-2.10
2019,02,04,20,44,-2.10
2019,02,04,20,45,-2.10
2019,02,04,20,46,-2.10
2019,02,04,20,47,-2.10
2019,02,04,20,48,-2.10
2019,02,04,20,49,-2.10
2019,02,04,20,50,-2.10
2019,02,04,20,51,-2.10
2019,02,04,20,52,-2.10
2019,02,04,20,53,-2.10
2019,02,04,20,54,-2.20
2019,02,04,20,55,-2.20
2019,02,04,20,56,-2.20
2019,02,04,20,57,-2.20
2019,02,04,20,58,-2.20
2019,02,04,20,59,-2.20
2019,02,04,21,00,-2.20
2019,02,04,21,01,-2.20
2019,02,04,21,02,-2.20
2019,02,04,21,03,-2.20
2019,02,04,21,04,-2.20
2019,02,04,21,05,-2.20
2019,02,04,21,06,-2.20
2019,02,04,21,07,-2.20
2019,02,04,21,08,-2.20
2019,02,04,21,09,-2.20
2019,02,04,21,10,-2.20
2019,02,04,21,11,-2.30
2019,02,04,21,12,-2.30
2019,02,04,21,13,-2.30
2019,02,04,21,14,-2.30
2019,02,04,21,15,-2.30
2019,02,04,21,16,-2.30
2019,02,04,21,17,-2.30
2019,02,04,21,18,-2.40
2019,02,04,21,19,-2.40
2019,02,04,21,20,-2.40
2019,02,04,21,21,-2.40
2019,02,04,21,22,-2.40
2019,02,04,21,23,-2.40
2019,02,04,21,24,-2.50
2019,02,04,21,25,-2.50
2019,02,04,21,26,-2.60
2019,02,04,21,27,-2.60
2019,02,04,21,28,-2.60
2019,02,04,21,29,-2.70
2019,02,04,21,30,-2.70
2019,02,04,21,31,-2.70
2019,02,04,21,32,-2.80
2019,02,04,21,33,-2.80
2019,02,04,21,34,-2.80
2019,02,04,21,35,-2.80
2019,02,04,21,36,-2.80
2019,02,04,21,37,-2.90
2019,02,04,21,38,-2.90
2019,02,04,21,39,-2.90
2019,02,04,21,40,-2.90
2019,02,04,21,41,-3.00
2019,02,04,21,42,-3.00
2019,02,04,21,43,-3.10
2019,02,04,21,44,-3.10
2019,02,04,21,45,-3.10
2019,02,04,21,46,-3.20
2019,02,04,21,47,-3.20
2019,02,04,21,48,-3.20
2019,02,04,21,49,-3.20
2019,02,04,21,50,-3.20
2019,02,04,21,51,-3.20
2019,02,04,21,52,-3.20
2019,02,04,21,53,-3.20
2019,02,04,21,54,-3.20
2019,02,04,21,55,-3.20
2019,02,04,21,56,-3.20
2019,02,04,21,57,-3.10
2019,02,04,21,58,-3.10
2019,02,04,21,59,-3.10
2019,02,04,22,00,-3.10
2019,02,04,22,01,-3.20
2019,02,04,22,02,-3.20
2019,02,04,22,03,-3.20
2019,02,04,22,04,-3.20
2019,02,04,22,05,-3.20
2019,02,04,22,06,-3.20
2019,02,04,22,07,-3.20
2019,02,04,22,08,-3.20
2019,02,04,22,09,-3.20
2019,02,04,22,10,-3.10
2019,02,04,22,11,-3.20
2019,02,04,22,12,-3.20
2019,02,04,22,13,-3.20
2019,02,04,22,14,-3.20
2019,02,04,22,15,-3.20
2019,02,04,22,16,-3.10
2019,02,04,22,17,-3.20
2019,02,04,22,18,-3.10
2019,02,04,22,19,-3.20
2019,02,04,22,20,-3.20
2019,02,04,22,21,-3.20
2019,02,04,22,22,-3.20
2019,02,04,22,23,-3.20
2019,02,04,22,24,-3.20
2019,02,04,22,25,-3.20
2019,02,04,22,26,-3.30
2019,02,04,22,27,-3.30
2019,02,04,22,28,-3.30
2019,02,04,22,29,-3.30
2019,02,04,22,30,-3.30
2019,02,04,22,31,-3.30
2019,02,04,22,32,-3.30
2019,02,04,22,33,-3.30
2019,02,04,22,34,-3.40
2019,02,04,22,35,-3.40
2019,02,04,22,36,-3.40
2019,02,04,22,37,-3.40
2019,02,04,22,38,-3.40
2019,02,04,22,39,-3.50
2019,02,04,22,40,-3.50
2019,02,04,22,41,-3.60
2019,02,04,22,42,-3.60
2019,02,04,22,43,-3.60
2019,02,04,22,44,-3.60
2019,02,04,22,45,-3.70
2019,02,04,22,46,-3.70
2019,02,04,22,47,-3.70
2019,02,04,22,48,-3.70
2019,02,04,22,49,-3.80
2019,02,04,22,50,-3.80
2019,02,04,22,51,-3.80
2019,02,04,22,52,-3.80
2019,02,04,22,53,-3.80
2019,02,04,22,54,-3.80
2019,02,04,22,55,-3.80
2019,02,04,22,56,-3.80
2019,02,04,22,57,-3.80
2019,02,04,22,58,-3.80
2019,02,04,22,59,-3.80
2019,02,04,23,00,-3.80
2019,02,04,23,01,-3.90
2019,02,04,23,02,-3.90
2019,02,04,23,03,-3.90
2019,02,04,23,04,-3.90
2019,02,04,23,05,-4.00
2019,02,04,23,06,-3.90
2019,02,04,23,07,-4.00
2019,02,04,23,08,-4.00
2019,02,04,23,09,-4.10
2019,02,04,23,10,-4.10
2019,02,04,23,11,-4.10
2019,02,04,23,12,-4.10
2019,02,04,23,13,-4.10
2019,02,04,23,14,-4.10
2019,02,04,23,15,-4.10
2019,02,04,23,16,-4.10
2019,02,04,23,17,-4.10
2019,02,04,23,18,-4.10
2019,02,04,23,19,-4.10
2019,02,04,23,20,-4.20
2019,02,04,23,21,-4.20
2019,02,04,23,22,-4.20
2019,02,04,23,23,-4.20
2019,02,04,23,24,-4.20
2019,02,04,23,25,-4.20
2019,02,04,23,26,-4.20
2019,02,04,23,27,-4.20
2019,02,04,23,28,-4.20
2019,02,04,23,29,-4.10
2019,02,04,23,30,-4.10
2019,02,04,23,31,-4.10
2019,02,04,23,32,-4.10
2019,02,04,23,33,-4.10
2019,02,04,23,34,-4.10
2019,02,04,23,35,-4.10
2019,02,04,23,36,-4.10
2019,02,04,23,37,-4.10
2019,02,04,23,38,-4.10
2019,02,04,23,39,-4.10
2019,02,04,23,40,-4.10
2019,02,04,23,41,-4.10
2019,02,04,23,42,-4.10
2019,02,04,23,43,-4.10
2019,02,04,23,44,-4.10
2019,02,04,23,45,-4.10
2019,02,04,23,46,-4.10
2019,02,04,23,47,-4.20
2019,02,04,23,48,-4.20
2019,02,04,23,49,-4.20
2019,02,04,23,50,-4.20
2019,02,04,23,51,-4.30
2019,02,04,23,52,-4.30
2019,02,04,23,53,-4.40
2019,02,04,23,54,-4.40
2019,02,04,23,55,-4.40
2019,02,04,23,56,-4.40
2019,02,04,23,57,-4.40
2019,02,04,23,58,-4.40
2019,02,04,23,59,-4.50
